This is the latest recevied weather packets stored in our database for station/object EA1CLT-10. If no packets are shown the sender has not sent any weather packets the latest 10 day(s).
| Time | Temp. | Humidity | Pressure | Rain* | Wind** | Luminosity | Snow |
|---|---|---|---|---|---|---|---|
| 1788470795 | 30° C | 41% | 1015.8 hPa | - | - | - | - |
| 1788469595 | 30° C | 41% | 1015.8 hPa | - | - | - | - |
| 1788468395 | 30° C | 41% | 1015.5 hPa | - | - | - | - |
| 1788467195 | 30° C | 42% | 1015.3 hPa | - | - | - | - |
| 1788465994 | 30° C | 41% | 1015 hPa | - | - | - | - |
| 1788464794 | 30° C | 42% | 1014.7 hPa | - | - | - | - |
| 1788463594 | 30° C | 41% | 1014.4 hPa | - | - | - | - |
| 1788462394 | 30° C | 41% | 1014.2 hPa | - | - | - | - |
| 1788461194 | 30° C | 41% | 1014.2 hPa | - | - | - | - |
| 1788459994 | 30° C | 41% | 1014.1 hPa | - | - | - | - |
| 1788458794 | 30.56° C | 40% | 1014.2 hPa | - | - | - | - |
| 1788457594 | 30.56° C | 40% | 1014.1 hPa | - | - | - | - |
| 1788456407 | 30.56° C | 40% | 1014.1 hPa | - | - | - | - |
| 1788455194 | 30.56° C | 38% | 1014.1 hPa | - | - | - | - |
| 1788453993 | 31.11° C | 36% | 1014 hPa | - | - | - | - |
| 1788452793 | 31.11° C | 36% | 1014.1 hPa | - | - | - | - |
| 1788451593 | 31.11° C | 37% | 1014.2 hPa | - | - | - | - |
| 1788450393 | 31.11° C | 37% | 1014.2 hPa | - | - | - | - |
| 1788449193 | 31.11° C | 38% | 1014.4 hPa | - | - | - | - |
| 1788447993 | 30.56° C | 40% | 1014.5 hPa | - | - | - | - |
| 1788446793 | 30.56° C | 42% | 1014.8 hPa | - | - | - | - |
| 1788445616 | 30° C | 46% | 1014.7 hPa | - | - | - | - |
| 1788444393 | 30° C | 47% | 1015 hPa | - | - | - | - |
| 1788443193 | 29.44° C | 49% | 1015 hPa | - | - | - | - |
| 1788441993 | 29.44° C | 49% | 1015 hPa | - | - | - | - |
* Rain since midnight (hover to see other rain measurements)
** Current wind speed in m/s (hover to see current wind gust speed)